TimeCST,TemperatureF,Dew PointF,Humidity,Sea Level PressureIn,VisibilityMPH,Wind Direction,Wind SpeedMPH,Gust SpeedMPH,PrecipitationIn,Events,Conditions,WindDirDegrees,DateUTC
12:41 AM,30.2,26.6,86,29.94,3.0,NNW,12.7,-,N/A,,Overcast,340,2013-02-27 06:41:00
12:53 AM,30.0,27.0,88,29.97,3.0,NNW,13.8,-,N/A,,Overcast,330,2013-02-27 06:53:00
1:19 AM,30.2,26.6,86,29.95,3.0,NNW,12.7,-,N/A,,Overcast,340,2013-02-27 07:19:00
1:50 AM,30.2,26.6,86,29.95,2.5,NNW,12.7,-,N/A,,Overcast,340,2013-02-27 07:50:00
1:53 AM,30.2,26.6,86,29.95,2.5,NNW,12.7,-,N/A,,Overcast,340,2013-02-27 07:53:00
2:15 AM,30.2,26.6,86,29.95,3.0,NNW,11.5,-,N/A,,Overcast,330,2013-02-27 08:15:00
2:29 AM,30.2,26.6,86,29.95,3.0,NNW,13.8,-,N/A,,Overcast,330,2013-02-27 08:29:00
2:53 AM,30.0,27.0,88,29.99,4.0,NW,10.4,-,N/A,,Overcast,320,2013-02-27 08:53:00
3:50 AM,30.2,26.6,86,29.97,4.0,WNW,9.2,-,N/A,,Overcast,290,2013-02-27 09:50:00
3:53 AM,30.0,27.0,88,30.00,4.0,WNW,9.2,-,N/A,,Overcast,300,2013-02-27 09:53:00
4:36 AM,28.4,26.6,93,29.96,5.0,WNW,12.7,-,N/A,,Overcast,290,2013-02-27 10:36:00
4:53 AM,28.9,25.0,85,30.00,5.0,WNW,12.7,-,N/A,,Overcast,290,2013-02-27 10:53:00
5:53 AM,28.9,24.1,82,30.02,5.0,WNW,13.8,-,N/A,,Haze,300,2013-02-27 11:53:00
6:53 AM,28.0,24.1,85,30.04,7.0,WNW,13.8,-,N/A,,Overcast,300,2013-02-27 12:53:00
7:53 AM,27.0,21.9,81,30.06,6.0,NW,10.4,-,0.00,Snow,Light Snow,310,2013-02-27 13:53:00
8:53 AM,28.4,21.2,74,30.04,9.0,NW,19.6,-,N/A,,Mostly Cloudy,320,2013-02-27 14:53:00
9:53 AM,30.0,23.0,75,30.10,9.0,NNW,18.4,-,N/A,,Overcast,330,2013-02-27 15:53:00
10:35 AM,30.2,24.8,80,30.07,10.0,NW,18.4,-,N/A,,Partly Cloudy,320,2013-02-27 16:35:00
10:53 AM,32.0,24.1,73,30.11,9.0,NW,21.9,28.8,N/A,,Clear,320,2013-02-27 16:53:00
11:53 AM,34.0,24.1,67,30.13,9.0,NNW,19.6,-,N/A,,Clear,330,2013-02-27 17:53:00
12:53 PM,37.0,24.1,59,30.12,10.0,NW,19.6,-,N/A,,Clear,320,2013-02-27 18:53:00
1:53 PM,37.9,25.0,60,30.12,9.0,NW,21.9,-,N/A,,Clear,320,2013-02-27 19:53:00
2:53 PM,39.0,25.0,57,30.12,10.0,NW,23.0,-,N/A,,Clear,320,2013-02-27 20:53:00
3:53 PM,39.0,26.1,60,30.14,10.0,NW,18.4,-,N/A,,Clear,320,2013-02-27 21:53:00
4:53 PM,37.9,27.0,65,30.14,10.0,NW,18.4,-,N/A,,Clear,320,2013-02-27 22:53:00
5:53 PM,37.0,27.0,67,30.16,10.0,NW,17.3,-,N/A,,Clear,310,2013-02-27 23:53:00
6:53 PM,35.1,27.0,72,30.18,10.0,NW,16.1,-,N/A,,Clear,310,2013-02-28 00:53:00
7:53 PM,33.1,26.1,75,30.19,10.0,NW,9.2,-,N/A,,Clear,310,2013-02-28 01:53:00
8:53 PM,32.0,26.1,79,30.20,10.0,NW,12.7,-,N/A,,Clear,310,2013-02-28 02:53:00
9:53 PM,32.0,26.1,79,30.20,10.0,WNW,11.5,-,N/A,,Clear,290,2013-02-28 03:53:00
10:53 PM,30.9,25.0,79,30.19,10.0,NW,10.4,-,N/A,,Clear,310,2013-02-28 04:53:00
11:53 PM,30.0,24.1,79,30.20,10.0,WNW,10.4,-,N/A,,Clear,300,2013-02-28 05:53:00